"Platform","Thunder Bay Island"
"Latitude (deg)",45.03472
"Longitude (deg)",-83.19417
"Sensor Device","Campbell CR1000 Logger analog input and Pololu ACS711EX current sensor"
"Sensor Type","Wind Generator current"
"Sensor Units","amps"
"Measurement","2 minute average of data samples taken at 5 second interval"
"Time means","Time at beginning of averaging period (UTC time zone)"

"Note:","This data was collected for research purposes."
"Note:","Minimal quality checking has been performed so data may contain known or unknown errors."
"Note:","Data provided by NOAA. Please credit NOAA."
"Note:","For more info see www.glerl.noaa.gov/res/recon"

"Time (UTC)","Wind Generator Current"
"YYYY/MM/DD HH:MM","amps"
2020/11/05 19:20, -0.02525084
2020/11/05 19:22, -0.02499962
2020/11/05 19:24, -0.02236176
2020/11/05 19:26, -0.02455997
2020/11/05 19:28, -0.02368069
2020/11/05 19:30, -0.02236176
2020/11/05 19:32, -0.02422585
2020/11/05 19:34, -0.02060318
2020/11/05 19:36, -0.02148247
2020/11/05 19:38, -0.02324104
2020/11/05 19:40, -0.02543926
2020/11/05 19:42, -0.02368069
2020/11/05 19:44, -0.02587891
2020/11/05 19:46, -0.02324104
2020/11/05 19:48, -0.02631855
2020/11/05 19:50, -0.02455997
2020/11/05 19:52, -0.02543926
2020/11/05 19:54, -0.02499962
2020/11/05 19:56, -0.02631855
2020/11/05 19:58, -0.02455997
2020/11/05 20:00, -0.02543926
2020/11/05 20:02, -0.02455997
2020/11/05 20:04, -0.02543926
2020/11/05 20:06, -0.02412033
2020/11/05 20:08, -0.02631855
2020/11/05 20:10, -0.02587891
2020/11/05 20:12, -0.02675819
2020/11/05 20:14, -0.02368069
2020/11/05 20:16, -0.02455997
2020/11/05 20:18, -0.02499962
2020/11/05 20:20, -0.02499962
2020/11/05 20:22, -0.02368069
2020/11/05 20:24, -0.02368069
2020/11/05 20:26, -0.02499962
2020/11/05 20:28, -0.02543926
2020/11/05 20:30, -0.02587891
2020/11/05 20:32, -0.02675819
2020/11/05 20:34, -0.02719784
2020/11/05 20:36, -0.02807713
2020/11/05 20:38, -0.02631855
2020/11/05 20:40, -0.02675819
2020/11/05 20:42, -0.02895641
2020/11/05 20:44, -0.02807713
2020/11/05 20:46, -0.02763748
2020/11/05 20:48, -0.02719784
2020/11/05 20:50, -0.02499962
2020/11/05 20:52, -0.02631855
2020/11/05 20:54, -0.02587891
2020/11/05 20:56, -0.02631855
2020/11/05 20:58, -0.02587891
2020/11/05 21:00, -0.02675819
2020/11/05 21:02, -0.02455997
2020/11/05 21:04, -0.02543926
2020/11/05 21:06, -0.02719784
2020/11/05 21:08, -0.02631855
2020/11/05 21:10, -0.02719784
2020/11/05 21:12, -0.02719784
2020/11/05 21:14, -0.02763748
2020/11/05 21:16, -0.02719784
2020/11/05 21:18, -0.02675819
2020/11/05 21:20, -0.02631855
2020/11/05 21:22, -0.02675819
2020/11/05 21:24, -0.02719784
2020/11/05 21:26, -0.02543926
2020/11/05 21:28, -0.02587891
2020/11/05 21:30, -0.02719784
2020/11/05 21:32, -0.02631855
2020/11/05 21:34, -0.02587891
2020/11/05 21:36, -0.02587891
2020/11/05 21:38, -0.02631855
2020/11/05 21:40, -0.02499962
2020/11/05 21:42, -0.02719784
2020/11/05 21:44, -0.02807713
2020/11/05 21:46, -0.02675819
2020/11/05 21:48, -0.02631855
2020/11/05 21:50, -0.02631855
2020/11/05 21:52, -0.02631855
2020/11/05 21:54, -0.02675819
2020/11/05 21:56, -0.02763748
2020/11/05 21:58, -0.02719784
2020/11/05 22:00, -0.02851677
2020/11/05 22:02, -0.02807713
2020/11/05 22:04, -0.02763748
2020/11/05 22:06, -0.02895641
2020/11/05 22:08, -0.03291321
2020/11/05 22:10, -0.03511143
2020/11/05 22:12, -0.0337925
2020/11/05 22:14, -0.03511143
2020/11/05 22:16, -0.03467178
2020/11/05 22:18, -0.03555107
2020/11/05 22:20, -0.03599072
2020/11/05 22:22, -0.03730965
2020/11/05 22:24, -0.03555107
2020/11/05 22:26, -0.03555107
2020/11/05 22:28, -0.03643036
2020/11/05 22:30, -0.03599072
2020/11/05 22:32, -0.03730965
2020/11/05 22:34, -0.03730965
2020/11/05 22:36, -0.03730965
2020/11/05 22:38, -0.03774929
2020/11/05 22:40, -0.03818894
2020/11/05 22:42, -0.03774929
2020/11/05 22:44, -0.03774929
2020/11/05 22:46, -0.03774929
2020/11/05 22:48, -0.03752263
2020/11/05 22:50, -0.03676518
2020/11/05 22:52, -0.03772378
2020/11/05 22:54, -0.03707401
2020/11/05 22:56, -0.03799915
2020/11/05 22:58, -0.03377152
2020/11/05 23:00, -0.03419924
2020/11/05 23:02, -0.03425654
2020/11/05 23:04, -0.03599842
2020/11/05 23:06, -0.03321282
2020/11/05 23:08, -0.03701973
2020/11/05 23:10, -0.03581786
2020/11/05 23:12, -0.03655052
2020/11/05 23:14, -0.0330108
2020/11/05 23:16, -0.03350409
2020/11/05 23:18, -0.03239131
2020/11/05 23:20, -0.03429143
2020/11/05 23:22, -0.03400803
2020/11/05 23:24, -0.03346268
2020/11/05 23:26, -0.03107659
2020/11/05 23:28, -0.03302972
2020/11/05 23:30, -0.03051201
2020/11/05 23:32, -0.03391107
2020/11/05 23:34, -0.03210489
2020/11/05 23:36, -0.0329659
2020/11/05 23:38, -0.03295652
2020/11/05 23:40, -0.03383533
2020/11/05 23:42, -0.03471502
2020/11/05 23:44, -0.03427506
2020/11/05 23:46, -0.03515498
2020/11/05 23:48, -0.03427506
2020/11/05 23:50, -0.03251553
2020/11/05 23:52, -0.03119588
2020/11/05 23:54, -0.03383517
2020/11/05 23:56, -0.03427513
2020/11/05 23:58, -0.03163576
2020/11/06 00:00, -0.03339529
2020/11/06 00:02, -0.03515498
2020/11/06 00:04, -0.03427513
2020/11/06 00:06, -0.0360349
2020/11/06 00:08, -0.03383517
2020/11/06 00:10, -0.03471502
2020/11/06 00:12, -0.03559494
2020/11/06 00:14, -0.03427506
2020/11/06 00:16, -0.0360349
2020/11/06 00:18, -0.03735478
2020/11/06 00:20, -0.0369149
2020/11/06 00:22, -0.03867467
2020/11/06 00:24, -0.03559502
2020/11/06 00:26, -0.03779475
2020/11/06 00:28, -0.03823471
2020/11/06 00:30, -0.0360349
2020/11/06 00:32, -0.03779475
2020/11/06 00:34, -0.03691482
2020/11/06 00:36, -0.03911464
2020/11/06 00:38, -0.03999456
2020/11/06 00:40, -0.03735478
2020/11/06 00:42, -0.03823471
2020/11/06 00:44, -0.03867467
2020/11/06 00:46, -0.03691482
2020/11/06 00:48, -0.04087448
2020/11/06 00:50, -0.0395546
2020/11/06 00:52, -0.03999456
2020/11/06 00:54, -0.04043452
2020/11/06 00:56, -0.0395546
2020/11/06 00:58, -0.04043452
2020/11/06 01:00, -0.04087448
2020/11/06 01:02, -0.0417544
2020/11/06 01:04, -0.04219437
2020/11/06 01:06, -0.04131444
2020/11/06 01:08, -0.04131444
2020/11/06 01:10, -0.04131444
2020/11/06 01:12, -0.04087448
2020/11/06 01:14, -0.03999456
2020/11/06 01:16, -0.04219437
2020/11/06 01:18, -0.04351425
2020/11/06 01:20, -0.0417544
2020/11/06 01:22, -0.04439418
2020/11/06 01:24, -0.0417544
2020/11/06 01:26, -0.04043452
2020/11/06 01:28, -0.04219437
2020/11/06 01:30, -0.04219437
2020/11/06 01:32, -0.04351425
2020/11/06 01:34, -0.04307429
2020/11/06 01:36, -0.04307429
2020/11/06 01:38, -0.04307429
2020/11/06 01:40, -0.04307429
2020/11/06 01:42, -0.04439418
2020/11/06 01:44, -0.04439418
2020/11/06 01:46, -0.04263433
2020/11/06 01:48, -0.04395421
2020/11/06 01:50, -0.04483414
2020/11/06 01:52, -0.04483414
2020/11/06 01:54, -0.04483414
2020/11/06 01:56, -0.04483414
2020/11/06 01:58, -0.04483414
2020/11/06 02:00, -0.04307429
2020/11/06 02:02, -0.04483414
2020/11/06 02:04, -0.04439418
2020/11/06 02:06, -0.04439418
2020/11/06 02:08, -0.04483414
2020/11/06 02:10, -0.04395421
2020/11/06 02:12, -0.04439418
2020/11/06 02:14, -0.04395421
2020/11/06 02:16, -0.04483414
2020/11/06 02:18, -0.04527402
2020/11/06 02:20, -0.04483414
2020/11/06 02:22, -0.04483414
2020/11/06 02:24, -0.04483414
2020/11/06 02:26, -0.04483414
2020/11/06 02:28, -0.04483414
2020/11/06 02:30, -0.04483414
2020/11/06 02:32, -0.04307429
2020/11/06 02:34, -0.04483414
2020/11/06 02:36, -0.04483414
2020/11/06 02:38, -0.04483414
2020/11/06 02:40, -0.04483414
2020/11/06 02:42, -0.04483414
2020/11/06 02:44, -0.04483414
2020/11/06 02:46, -0.04527402
2020/11/06 02:48, -0.04527402
2020/11/06 02:50, -0.04703355
2020/11/06 02:52, -0.04791331
2020/11/06 02:54, -0.04483414
2020/11/06 02:56, -0.04483414
2020/11/06 02:58, -0.04527402
2020/11/06 03:00, -0.04615378
2020/11/06 03:02, -0.04659367
2020/11/06 03:04, -0.04615378
2020/11/06 03:06, -0.04527402
2020/11/06 03:08, -0.04483414
2020/11/06 03:10, -0.04659367
2020/11/06 03:12, -0.04527402
2020/11/06 03:14, -0.04747343
2020/11/06 03:16, -0.04879308
2020/11/06 03:18, -0.04659367
2020/11/06 03:20, -0.04615378
2020/11/06 03:22, -0.04615378
2020/11/06 03:24, -0.04747343
2020/11/06 03:26, -0.04659367
2020/11/06 03:28, -0.04967284
2020/11/06 03:30, -0.04527402
2020/11/06 03:32, -0.0457139
2020/11/06 03:34, -0.04659367
2020/11/06 03:36, -0.04483414
2020/11/06 03:38, -0.04527402
2020/11/06 03:40, -0.04659367
2020/11/06 03:42, -0.04659367
2020/11/06 03:44, -0.04703355
2020/11/06 03:46, -0.0457139
2020/11/06 03:48, -0.04659367
2020/11/06 03:50, -0.04747343
2020/11/06 03:52, -0.0457139
2020/11/06 03:54, -0.04747343
2020/11/06 03:56, -0.04791331
2020/11/06 03:58, -0.05011272
2020/11/06 04:00, -0.04967284
2020/11/06 04:02, -0.0483532
2020/11/06 04:04, -0.04747343
2020/11/06 04:06, -0.04615378
2020/11/06 04:08, -0.04703355
2020/11/06 04:10, -0.04615378
2020/11/06 04:12, -0.04879308
2020/11/06 04:14, -0.04703355
2020/11/06 04:16, -0.04483414
2020/11/06 04:18, -0.04659367
2020/11/06 04:20, -0.0457139
2020/11/06 04:22, -0.0457139
2020/11/06 04:24, -0.0457139
2020/11/06 04:26, -0.04615378
2020/11/06 04:28, -0.0457139
2020/11/06 04:30, -0.04483414
2020/11/06 04:32, -0.0457139
2020/11/06 04:34, -0.04527402
2020/11/06 04:36, -0.04483414
2020/11/06 04:38, -0.04483414
2020/11/06 04:40, -0.04483414
2020/11/06 04:42, -0.04527402
2020/11/06 04:44, -0.04527402
2020/11/06 04:46, -0.0457139
2020/11/06 04:48, -0.04483414
2020/11/06 04:50, -0.04527402
2020/11/06 04:52, -0.04703355
2020/11/06 04:54, -0.0457139
2020/11/06 04:56, -0.04483414
2020/11/06 04:58, -0.0457139
2020/11/06 05:00, -0.04791331
2020/11/06 05:02, -0.04967284
2020/11/06 05:04, -0.04879308
2020/11/06 05:06, -0.0457139
2020/11/06 05:08, -0.04527402
2020/11/06 05:10, -0.0457139
2020/11/06 05:12, -0.04879308
2020/11/06 05:14, -0.04791331
2020/11/06 05:16, -0.04659367
2020/11/06 05:18, -0.04659367
2020/11/06 05:20, -0.04615378
2020/11/06 05:22, -0.04703355
2020/11/06 05:24, -0.04615378
2020/11/06 05:26, -0.04703355
2020/11/06 05:28, -0.0457139
2020/11/06 05:30, -0.04659367
2020/11/06 05:32, -0.04615378
2020/11/06 05:34, -0.04703355
2020/11/06 05:36, -0.04483414
2020/11/06 05:38, -0.04703355
2020/11/06 05:40, -0.0457139
2020/11/06 05:42, -0.04615378
2020/11/06 05:44, -0.04703355
2020/11/06 05:46, -0.04483406
2020/11/06 05:48, -0.04483414
2020/11/06 05:50, -0.0457139
2020/11/06 05:52, -0.04615378
2020/11/06 05:54, -0.04527402
2020/11/06 05:56, -0.04527402
2020/11/06 05:58, -0.0457139
2020/11/06 06:00, -0.04615378
2020/11/06 06:02, -0.04703355
2020/11/06 06:04, -0.04615378
2020/11/06 06:06, -0.0457139
2020/11/06 06:08, -0.0457139
2020/11/06 06:10, -0.04615378
2020/11/06 06:12, -0.0483532
2020/11/06 06:14, -0.04703355
2020/11/06 06:16, -0.04527402
2020/11/06 06:18, -0.04659367
2020/11/06 06:20, -0.0483532
2020/11/06 06:22, -0.04615378
2020/11/06 06:24, -0.04483414
2020/11/06 06:26, -0.04791331
2020/11/06 06:28, -0.04527402
2020/11/06 06:30, -0.04923296
2020/11/06 06:32, -0.04791331
2020/11/06 06:34, -0.04791331
2020/11/06 06:36, -0.04615378
2020/11/06 06:38, -0.04747343
2020/11/06 06:40, -0.0483532
2020/11/06 06:42, -0.04659367
2020/11/06 06:44, -0.04967284
2020/11/06 06:46, -0.05099249
2020/11/06 06:48, -0.05143237
2020/11/06 06:50, -0.04879308
2020/11/06 06:52, -0.04923296
2020/11/06 06:54, -0.04923296
2020/11/06 06:56, -0.04967284
2020/11/06 06:58, -0.05275202
2020/11/06 07:00, -0.04923296
2020/11/06 07:02, -0.05055261
2020/11/06 07:04, -0.05011272
2020/11/06 07:06, -0.0483532
2020/11/06 07:08, -0.05055261
2020/11/06 07:10, -0.05011272
2020/11/06 07:12, -0.05187225
2020/11/06 07:14, -0.05055261
2020/11/06 07:16, -0.05275202
2020/11/06 07:18, -0.05275202
2020/11/06 07:20, -0.0531919
2020/11/06 07:22, -0.05275202
2020/11/06 07:24, -0.05187225
2020/11/06 07:26, -0.05187225
2020/11/06 07:28, -0.05407166
2020/11/06 07:30, -0.05275202
2020/11/06 07:32, -0.0531919
2020/11/06 07:34, -0.05407166
2020/11/06 07:36, -0.05451155
2020/11/06 07:38, -0.05363178
2020/11/06 07:40, -0.05451155
2020/11/06 07:42, -0.05407174
2020/11/06 07:44, -0.05451155
2020/11/06 07:46, -0.05539131
2020/11/06 07:48, -0.05583127
2020/11/06 07:50, -0.05495151
2020/11/06 07:52, -0.05539131
2020/11/06 07:54, -0.05451155
2020/11/06 07:56, -0.05495143
2020/11/06 07:58, -0.05539131
2020/11/06 08:00, -0.05715116
2020/11/06 08:02, -0.0567112
2020/11/06 08:04, -0.05803108
2020/11/06 08:06, -0.05715116
2020/11/06 08:08, -0.05583136
2020/11/06 08:10, -0.05583136
2020/11/06 08:12, -0.05583136
2020/11/06 08:14, -0.05715116
2020/11/06 08:16, -0.05539131
2020/11/06 08:18, -0.05803108
2020/11/06 08:20, -0.05891101
2020/11/06 08:22, -0.05627124
2020/11/06 08:24, -0.05847104
2020/11/06 08:26, -0.05627124
2020/11/06 08:28, -0.05583127
2020/11/06 08:30, -0.0567112
2020/11/06 08:32, -0.05715116
2020/11/06 08:34, -0.05715116
2020/11/06 08:36, -0.0567112
2020/11/06 08:38, -0.05759112
2020/11/06 08:40, -0.0567112
2020/11/06 08:42, -0.05583136
2020/11/06 08:44, -0.05539131
2020/11/06 08:46, -0.05407166
2020/11/06 08:48, -0.05627124
2020/11/06 08:50, -0.05539147
2020/11/06 08:52, -0.0567112
2020/11/06 08:54, -0.05451155
2020/11/06 08:56, -0.05495151
2020/11/06 08:58, -0.05363186
2020/11/06 09:00, -0.05407166
2020/11/06 09:02, -0.05363186
2020/11/06 09:04, -0.05451155
2020/11/06 09:06, -0.05187225
2020/11/06 09:08, -0.05143237
2020/11/06 09:10, -0.05495143
2020/11/06 09:12, -0.05539139
2020/11/06 09:14, -0.05539139
2020/11/06 09:16, -0.05539131
2020/11/06 09:18, -0.05539131
2020/11/06 09:20, -0.0531919
2020/11/06 09:22, -0.05451155
2020/11/06 09:24, -0.05011272
2020/11/06 09:26, -0.05275202
2020/11/06 09:28, -0.05363178
2020/11/06 09:30, -0.05495143
2020/11/06 09:32, -0.05407166
2020/11/06 09:34, -0.05451155
2020/11/06 09:36, -0.05055261
2020/11/06 09:38, -0.05407174
2020/11/06 09:40, -0.05231214
2020/11/06 09:42, -0.05187225
2020/11/06 09:44, -0.05055261
2020/11/06 09:46, -0.05099249
2020/11/06 09:48, -0.05011272
2020/11/06 09:50, -0.04967284
2020/11/06 09:52, -0.04879308
2020/11/06 09:54, -0.04659367
2020/11/06 09:56, -0.0483532
2020/11/06 09:58, -0.04791331
2020/11/06 10:00, -0.04967284
2020/11/06 10:02, -0.04747343
2020/11/06 10:04, -0.04527402
2020/11/06 10:06, -0.04615378
2020/11/06 10:08, -0.04747343
2020/11/06 10:10, -0.04791331
2020/11/06 10:12, -0.04615378
2020/11/06 10:14, -0.04703355
2020/11/06 10:16, -0.04747343
2020/11/06 10:18, -0.04747343
2020/11/06 10:20, -0.04791331
2020/11/06 10:22, -0.04791331
2020/11/06 10:24, -0.04659367
2020/11/06 10:26, -0.04791331
2020/11/06 10:28, -0.04615378
2020/11/06 10:30, -0.0457139
2020/11/06 10:32, -0.04659367
2020/11/06 10:34, -0.04483414
2020/11/06 10:36, -0.04703355
2020/11/06 10:38, -0.0457139
2020/11/06 10:40, -0.04483414
2020/11/06 10:42, -0.04527402
2020/11/06 10:44, -0.04527402
2020/11/06 10:46, -0.04483414
2020/11/06 10:48, -0.04527402
2020/11/06 10:50, -0.04483414
2020/11/06 10:52, -0.04483414
2020/11/06 10:54, -0.04527402
2020/11/06 10:56, -0.04483414
2020/11/06 10:58, -0.04483414
2020/11/06 11:00, -0.04527402
2020/11/06 11:02, -0.04615378
2020/11/06 11:04, -0.04527402
2020/11/06 11:06, -0.0457139
2020/11/06 11:08, -0.0457139
2020/11/06 11:10, -0.04483414
2020/11/06 11:12, -0.04527402
2020/11/06 11:14, -0.04527402
2020/11/06 11:16, -0.04483414
2020/11/06 11:18, -0.04527402
2020/11/06 11:20, -0.04483414
2020/11/06 11:22, -0.04483414
2020/11/06 11:24, -0.04527402
2020/11/06 11:26, -0.04527402
2020/11/06 11:28, -0.04527402
2020/11/06 11:30, -0.04483406
2020/11/06 11:32, -0.04527402
2020/11/06 11:34, -0.0483532
2020/11/06 11:36, -0.04483414
2020/11/06 11:38, -0.0457139
2020/11/06 11:40, -0.04483414
2020/11/06 11:42, -0.04527402
2020/11/06 11:44, -0.04483414
2020/11/06 11:46, -0.04615378
2020/11/06 11:48, -0.04615378
2020/11/06 11:50, -0.04483414
2020/11/06 11:52, -0.04483414
2020/11/06 11:54, -0.04527402
2020/11/06 11:56, -0.04483414
2020/11/06 11:58, -0.04527402
2020/11/06 12:00, -0.04527402
2020/11/06 12:02, -0.0457139
2020/11/06 12:04, -0.04483414
2020/11/06 12:06, -0.04483414
2020/11/06 12:08, -0.04483414
2020/11/06 12:10, -0.04483414
2020/11/06 12:12, -0.04527402
2020/11/06 12:14, -0.04483414
2020/11/06 12:16, -0.04527402
2020/11/06 12:18, -0.04527402
2020/11/06 12:20, -0.04527402
2020/11/06 12:22, -0.04527402
2020/11/06 12:24, -0.04483414
2020/11/06 12:26, -0.04483414
2020/11/06 12:28, -0.04483414
2020/11/06 12:30, -0.04439418
2020/11/06 12:32, -0.04483414
2020/11/06 12:34, -0.04483414
2020/11/06 12:36, -0.04483414
2020/11/06 12:38, -0.04527402
2020/11/06 12:40, -0.04483414
2020/11/06 12:42, -0.04483414
2020/11/06 12:44, -0.04527402
2020/11/06 12:46, -0.04439418
2020/11/06 12:48, -0.04527402
2020/11/06 12:50, -0.04483414
2020/11/06 12:52, -0.04483414
2020/11/06 12:54, -0.04483414
2020/11/06 12:56, -0.04527402
2020/11/06 12:58, -0.04483414
2020/11/06 13:00, -0.04483414
2020/11/06 13:02, -0.04483414
2020/11/06 13:04, -0.04483414
2020/11/06 13:06, -0.04395421
2020/11/06 13:08, -0.04439418
2020/11/06 13:10, -0.04483414
2020/11/06 13:12, -0.04351425
2020/11/06 13:14, -0.04307429
2020/11/06 13:16, -0.04439418
2020/11/06 13:18, -0.04483414
2020/11/06 13:20, -0.04351425
2020/11/06 13:22, -0.04483414
2020/11/06 13:24, -0.04439418
2020/11/06 13:26, -0.04483414
2020/11/06 13:28, -0.04395421
2020/11/06 13:30, -0.04351425
2020/11/06 13:32, -0.04439418
2020/11/06 13:34, -0.04439418
2020/11/06 13:36, -0.04351425
2020/11/06 13:38, -0.04439418
2020/11/06 13:40, -0.04439418
2020/11/06 13:42, -0.04395421
2020/11/06 13:44, -0.04395421
2020/11/06 13:46, -0.04483414
2020/11/06 13:48, -0.04395421
2020/11/06 13:50, -0.04395421
2020/11/06 13:52, -0.04307429
2020/11/06 13:54, -0.0417544
2020/11/06 13:56, -0.0395546
2020/11/06 13:58, -0.04263433
2020/11/06 14:00, -0.04307429
2020/11/06 14:02, -0.04307429
2020/11/06 14:04, -0.04395421
2020/11/06 14:06, -0.03999456
2020/11/06 14:08, -0.03867467
2020/11/06 14:10, -0.03867467
2020/11/06 14:12, -0.03647494
2020/11/06 14:14, -0.03735478
2020/11/06 14:16, -0.03735478
2020/11/06 14:18, -0.03427506
2020/11/06 14:20, -0.03515506
2020/11/06 14:22, -0.03515506
2020/11/06 14:24, -0.03647486
2020/11/06 14:26, -0.03471502
2020/11/06 14:28, -0.03494167
2020/11/06 14:30, -0.03512971
2020/11/06 14:32, -0.03608457
2020/11/06 14:34, -0.0361278
2020/11/06 14:36, -0.036822
2020/11/06 14:38, -0.03435397
2020/11/06 14:40, -0.03239942
2020/11/06 14:42, -0.03235181
2020/11/06 14:44, -0.03485052
2020/11/06 14:46, -0.03881645
2020/11/06 14:48, -0.03542916
2020/11/06 14:50, -0.03639094
2020/11/06 14:52, -0.03980136
2020/11/06 14:54, -0.03646755
2020/11/06 14:56, -0.03651873
2020/11/06 14:58, -0.03617883
2020/11/06 15:00, -0.03448788
2020/11/06 15:02, -0.03267574
2020/11/06 15:04, -0.03252308
2020/11/06 15:06, -0.03405023
2020/11/06 15:08, -0.03387443
2020/11/06 15:10, -0.01932065
2020/11/06 15:12, -0.002047618
2020/11/06 15:14, -0.002761761
2020/11/06 15:16, -0.02879532
2020/11/06 15:18, -0.03092035
2020/11/06 15:20, -0.03501948
2020/11/06 15:22, -0.02056734
2020/11/06 15:24, -0.02278598
2020/11/06 15:26, -0.02675048
2020/11/06 15:28, -0.02367504
2020/11/06 15:30, -0.006090164
2020/11/06 15:32, -0.03026962
2020/11/06 15:34, -0.01927884
2020/11/06 15:36, -0.02587334
2020/11/06 15:38, -0.0302697
2020/11/06 15:40, -0.02895069
2020/11/06 15:42, -0.03114891
2020/11/06 15:44, -0.03026962
2020/11/06 15:46, -0.02982998
2020/11/06 15:48, -0.0280714
2020/11/06 15:50, -0.0280714
2020/11/06 15:52, -0.02675247
2020/11/06 15:54, -0.02631283
2020/11/06 15:56, -0.02631283
2020/11/06 15:58, -0.02587318
2020/11/06 16:00, -0.02631283
2020/11/06 16:02, -0.02587318
2020/11/06 16:04, -0.02675247
2020/11/06 16:06, -0.02367496
2020/11/06 16:08, -0.0249939
2020/11/06 16:10, -0.02367496
2020/11/06 16:12, -0.02587318
2020/11/06 16:14, -0.02543354
2020/11/06 16:16, -0.02587318
2020/11/06 16:18, -0.02587318
2020/11/06 16:20, -0.02323532
2020/11/06 16:22, -0.02279568
2020/11/06 16:24, -0.007408937
2020/11/06 16:26, -0.006529728
2020/11/06 16:28, -0.005210797
2020/11/06 16:30, -0.000374794
2020/11/06 16:32, -0.003012816
2020/11/06 16:34, -0.005210876
2020/11/06 16:36, -0.008287986
2020/11/06 16:38, -0.002133608
2020/11/06 16:40, -0.002133528
2020/11/06 16:42, -0.002133369
2020/11/06 16:44, -0.0003750324
2020/11/06 16:46, -0.003891706
2020/11/06 16:48, -0.007408937
2020/11/06 16:50, -0.005650202
2020/11/06 16:52, -0.004771153
2020/11/06 16:54, -0.004331589
2020/11/06 16:56, -0.00345238
2020/11/06 16:58, -0.002573172
2020/11/06 17:00, 0.01193452
2020/11/06 17:02, 0.001822869
2020/11/06 17:04, 0.0009438197
2020/11/06 17:06, 0.02512328
2020/11/06 17:08, 0.01677052
2020/11/06 17:10, 0.01764957
2020/11/06 17:12, 0.01545159
2020/11/06 17:14, 0.004021406
2020/11/06 17:16, 0.03171794
2020/11/06 17:18, 0.01852894
2020/11/06 17:20, 0.01413258
2020/11/06 17:22, 0.009736617
2020/11/06 17:24, -0.0003752708
2020/11/06 17:26, 0.008856933
2020/11/06 17:28, 0.02776122
2020/11/06 17:30, 0.001383384
2020/11/06 17:32, 0.01149488
2020/11/06 17:34, 0.02204577
2020/11/06 17:36, 0.02160629
2020/11/06 17:38, 0.01984803
2020/11/06 17:40, 0.009296577
2020/11/06 17:42, 0.008417766
2020/11/06 17:44, -0.0003748735
2020/11/06 17:46, 0.01984787
2020/11/06 17:48, 0.01105515
2020/11/06 17:50, -0.0003750324
2020/11/06 17:52, 0.00665911
2020/11/06 17:54, 0.006219467
2020/11/06 17:56, -0.004331509
2020/11/06 17:58, -0.01180498
2020/11/06 18:00, 0.004460573
2020/11/06 18:02, -0.007409016
2020/11/06 18:04, -0.008727868
2020/11/06 18:06, -0.008288066
2020/11/06 18:08, -0.01532189
2020/11/06 18:10, -0.01664066
2020/11/06 18:12, -0.01708031
2020/11/06 18:14, -0.01664066
2020/11/06 18:16, -0.01751995
2020/11/06 18:18, -0.01664066
2020/11/06 18:20, -0.01664066
2020/11/06 18:22, -0.01620102
2020/11/06 18:24, -0.01708031
2020/11/06 18:26, -0.01620102
2020/11/06 18:28, -0.01620102
2020/11/06 18:30, -0.01620102
2020/11/06 18:32, -0.01620102
2020/11/06 18:34, -0.01708031
2020/11/06 18:36, -0.01620102
2020/11/06 18:38, -0.01576146
2020/11/06 18:40, -0.01664066
2020/11/06 18:42, -0.01620102
2020/11/06 18:44, -0.01664066
2020/11/06 18:46, -0.01620102
2020/11/06 18:48, -0.01620102
2020/11/06 18:50, -0.01532189
2020/11/06 18:52, -0.01620102
2020/11/06 18:54, -0.01444276
2020/11/06 18:56, -0.01620102
2020/11/06 18:58, -0.01620102
2020/11/06 19:00, -0.01488233
2020/11/06 19:02, -0.01535706
2020/11/06 19:04, -0.01620102
2020/11/06 19:06, -0.01532189
2020/11/06 19:08, -0.01444276
2020/11/06 19:10, -0.01356363
2020/11/06 19:12, -0.01532189
2020/11/06 19:14, -0.01620102
2020/11/06 19:16, -0.01576146
2020/11/06 19:18, -0.01576146
2020/11/06 19:20, -0.01532189
2020/11/06 19:22, -0.01488233
2020/11/06 19:24, -0.01488233
2020/11/06 19:26, -0.0140032
2020/11/06 19:28, -0.01356363
2020/11/06 19:30, -0.0140032
2020/11/06 19:32, -0.01532189
2020/11/06 19:34, -0.01180538
2020/11/06 19:36, -0.01224494
2020/11/06 19:38, -0.01444276
2020/11/06 19:40, -0.0140032
2020/11/06 19:42, -0.01092625
2020/11/06 19:44, -0.01136581
2020/11/06 19:46, -0.01180538
2020/11/06 19:48, -0.01356363
2020/11/06 19:50, -0.01048668
2020/11/06 19:52, -0.01312407
2020/11/06 19:54, -0.01004712
2020/11/06 19:56, -0.01048668
2020/11/06 19:58, -0.01356363
2020/11/06 20:00, -0.01356363
2020/11/06 20:02, -0.008183365
2020/11/06 20:04, -0.009607554
2020/11/06 20:06, -0.01048668
2020/11/06 20:08, -0.01004712
2020/11/06 20:10, -0.01312407
2020/11/06 20:12, -0.01180538
2020/11/06 20:14, -0.01136581
2020/11/06 20:16, -0.0140032
2020/11/06 20:18, -0.0140032
2020/11/06 20:20, -0.01576146
2020/11/06 20:22, -0.01356363